This is the latest recevied weather packets stored in our database for station/object N1LJK-13. If no packets are shown the sender has not sent any weather packets the latest 10 day(s).
| Time | Temp. | Humidity | Pressure | Rain* | Wind** | Luminosity | Snow |
|---|---|---|---|---|---|---|---|
| 1777927532 | 17.78° C | 98% | 1007.2 hPa | 0 mm | - | - | - |
| 1777926333 | 18.33° C | 98% | 1007.3 hPa | 0 mm | - | - | - |
| 1777923932 | 19.44° C | 98% | 1007.3 hPa | 0 mm | - | - | - |
| 1777922732 | 18.89° C | 98% | 1007.5 hPa | 0 mm | - | - | - |
| 1777921531 | 15.56° C | 98% | 1007.8 hPa | 0 mm | - | - | - |
| 1777919132 | 15° C | 98% | 1007.7 hPa | 0 mm | - | - | - |
| 1777917931 | 15° C | 98% | 1007.6 hPa | 0 mm | - | - | - |
| 1777916731 | 16.67° C | 98% | 1007.3 hPa | 0 mm | - | - | - |
| 1777915531 | 17.78° C | 98% | 1007.2 hPa | 0 mm | - | - | - |
| 1777914331 | 16.67° C | 98% | 1007.3 hPa | 0 mm | - | - | - |
| 1777913131 | 16.67° C | 98% | 1007.6 hPa | 0 mm | - | - | - |
| 1777910732 | 16.67° C | 98% | 1007.9 hPa | 0 mm | - | - | - |
| 1777908331 | 17.78° C | 98% | 1008.4 hPa | 0 mm | - | - | - |
| 1777907131 | 17.22° C | 98% | 1008.5 hPa | 0 mm | - | - | - |
| 1777905931 | 15.56° C | 98% | 1008.8 hPa | 0 mm | - | - | - |
| 1777904731 | 13.89° C | 98% | 1009.2 hPa | 0 mm | - | - | - |
| 1777903531 | 14.44° C | 98% | 1009.5 hPa | 0 mm | - | - | - |
| 1777902331 | 15.56° C | 98% | 1009.6 hPa | 0 mm | - | - | - |
| 1777901131 | 15.56° C | 98% | 1009.6 hPa | 0 mm | - | - | - |
| 1777899931 | 15.56° C | 98% | 1010 hPa | 0 mm | - | - | - |
| 1777897531 | 12.78° C | 98% | 1010.1 hPa | 0 mm | - | - | - |
| 1777895131 | 10° C | 98% | 1010.3 hPa | 0 mm | - | - | - |
| 1777893931 | 5.56° C | 98% | 1010.3 hPa | 0 mm | - | - | - |
| 1777892732 | 4.44° C | 98% | 1010.4 hPa | 0 mm | - | - | - |
| 1777891531 | 3.33° C | 98% | 1010.4 hPa | 0 mm | - | - | - |
* Rain latest hour (hover to see other rain measurements)
** Current wind speed in m/s (hover to see current wind gust speed)